Location: Betisch’rdili
(42.4128°N, 44.9194°E)
Time: 14:23:21
(UTC+00:00)

Daily predictions for brighter satellites

Satellite Brightness Start Highest point End
(mag) Time Altitude Azimuth Time Altitude Azimuth Time Altitude Azimuth
BREEZE-M DEB (TANK) 2.6 16:28:01 10° WNW 16:30:46 77° NNE 16:37:45 10° ESE
BREEZE-M DEB (TANK) 3.9 16:29:07 10° NW 16:31:25 30° NNE 16:35:42 10° E
Okean 1 Rocket 4.4 16:34:18 10° SE 16:37:38 22° E 16:40:59 10° NE
Milstar 3 3.9 16:34:10 10° SW 16:39:43 27° S 16:46:36 10° ESE
ARIANE 6 FM1 Upper Stage 2.7 16:37:21 10° NW 16:41:20 75° SW 16:45:17 10° SSE
Cosmos 2084 3.9 16:39:28 10° SW 16:43:34 66° NW 16:47:41 10° NNE
GEOS 3 Rocket 3.9 16:38:18 10° SSE 16:43:34 71° SW 16:48:56 10° NW
Cosmos 1833 Rocket 2.7 16:38:58 10° S 16:44:26 59° ESE 16:49:57 10° NNE
CZ-4B R/B 3.9 16:39:27 10° SE 16:44:39 40° ENE 16:49:52 10° N
ASTEX 1 3.6 16:40:49 10° SSE 16:45:37 53° E 16:50:26 10° N
CSL-04 Rocket 3.7 16:40:12 10° SSE 16:45:44 86° ENE 16:51:14 10° NNW
SPOT 5 2.7 16:42:04 10° S 16:46:21 81° WSW 16:50:42 10° NNW
Cosmos 2056 Rocket 3.5 16:41:02 10° SSW 16:46:25 76° ESE 16:51:48 10° NNE
CZ-4 R/B 1.2 16:44:37 10° SSE 16:48:13 62° ENE 16:51:48 10° N
Cosmos 1624 Rocket 3.9 16:44:17 10° SSW 16:49:26 77° ESE 16:54:37 10° NNE
CZ-4B R/B 3.8 16:47:20 10° SSE 16:51:18 79° ENE 16:55:21 10° N
USA 229 DEB 4.4 16:43:55 10° NNW 16:51:19 56° NE 16:59:15 11° SE
USA 229 4.4 16:43:58 10° NNW 16:51:22 56° NE 16:59:17 11° SE
Terra 2.2 16:50:42 10° SE 16:55:09 46° ENE 16:59:39 10° N
Cosmos 1862 4.3 16:53:19 10° NNW 16:56:42 42° W 17:00:03 10° SSW
Sich 1 Rocket 4.3 16:55:52 10° SSE 16:59:43 32° E 17:03:37 10° NNE
MetOp-B 4.4 16:55:07 10° SSE 17:00:18 54° ENE 17:05:31 10° N
PAYLOAD B 4.3 16:54:56 10° SSE 17:00:20 65° ENE 17:05:49 10° N
ATLAS 5 CENTAUR R/B 4.2 16:57:30 10° WNW 17:00:47 19° WSW 17:04:28 10° SSW
Cosmos 1459 Rocket 4.4 16:55:19 10° SSE 17:01:10 43° E 17:06:57 10° NNE
ATLAS 2AS CENTAUR R/B 3.1 16:54:30 10° SW 17:01:28 70° NW 17:08:19 10° NNE
Cosmos 2100 Rocket 4.2 16:58:18 10° SSE 17:04:14 51° E 17:10:16 10° NNE
Resurs 01 Rocket 4.4 17:05:24 10° SW 17:07:53 15° W 17:10:23 10° NW
Meteor 2-17 Rocket 4.4 17:02:13 10° N 17:08:21 81° E 17:14:25 10° S
SL-24 R/B 4.1 17:04:29 10° NNE 17:08:43 88° E 17:13:15 10° SSW
SJ 16-02 2.8 17:04:54 10° NW 17:08:47 35° WSW 17:12:38 10° SSW
Cosmos 2058 4.2 17:05:49 10° NNW 17:09:24 37° W 17:12:59 10° SSW
Cosmos 44 Rocket 3.8 17:06:44 10° S 17:11:21 38° ESE 17:16:06 10° NE
IRAS Rocket 4.4 17:07:11 10° SSE 17:12:39 77° WSW 17:18:09 10° NNW
ADEOS 3.6 17:11:07 11° SSE 17:16:05 65° ENE 17:21:16 10° N
Cosmos 2082 Rocket 3.3 17:17:25 15° SE 17:20:29 23° E 17:24:50 10° NE
Spot 2 Rocket 3.9 17:16:51 16° SE 17:20:34 44° ENE 17:25:19 10° N
SKYMED 3 4.2 17:17:10 10° NNE 17:21:08 72° ESE 17:25:02 10° S
Cosmos 1743 3.8 17:21:36 10° NNE 17:23:47 18° ENE 17:24:14 18° E
ISS -3.4 17:20:56 10° SSW 17:24:05 41° SE 17:27:16 10° ENE
Cosmos 2151 Rocket 3.8 17:23:21 10° SSW 17:27:41 69° W 17:32:03 10° N
Okean 2 Rocket 3.1 17:25:38 10° S 17:30:05 89° W 17:34:37 10° N
IRS-1A Rocket 4.3 17:25:18 14° SSE 17:30:21 75° ENE 17:36:13 10° N
Timation 1 Rocket 4.3 17:25:58 10° SSW 17:31:56 74° ESE 17:37:56 10° NNE
CZ-4C R/B 1.4 17:31:40 10° SSW 17:35:35 72° ESE 17:40:30 10° NE
SL-4 R/B 1.8 17:32:02 10° NW 17:35:52 77° NNE 17:37:51 27° ESE
Cosmos 1725 Rocket 4.1 17:30:52 10° SSE 17:36:56 57° E 17:43:02 10° NNE
DELTA 2 R/B (1) 4.2 17:34:08 10° SW 17:39:02 32° SSE 17:41:39 22° ESE
Cosmos 1536 Rocket 3.9 17:35:31 10° NNW 17:39:49 63° W 17:43:46 12° S
ATLAS 3B R/B 3.0 17:33:31 10° NNW 17:41:18 76° NE 17:46:18 23° SE
Cosmos 292 Rocket 3.7 17:37:21 10° NNW 17:42:09 85° ENE 17:45:02 24° SSE
Cosmos 2228 3.7 17:43:13 29° ESE 17:44:16 33° E 17:47:58 10° NNE
Cosmos 1697 Rocket 2.7 17:38:56 10° NNW 17:44:34 80° WSW 17:48:25 21° SSE
ERS-1 Rocket 3.7 17:39:56 10° S 17:44:47 51° W 17:49:40 10° NNW
Okean O Rocket 1.5 17:43:00 26° SSE 17:45:22 70° ENE 17:49:40 10° N
Cosmos 1452 Rocket 3.4 17:41:04 10° S 17:46:13 67° ESE 17:51:25 10° NNE
DEBRIS 3.7 17:44:44 10° W 17:47:19 51° NNW 17:53:41 10° ENE
SL-16 R/B 4.3 17:45:03 10° NNE 17:47:51 14° NE 17:50:39 10° ENE
Cosmos 1741 Rocket 4.1 17:44:28 10° NNW 17:49:46 64° ENE 17:52:29 28° SE
Cosmos 1331 Rocket 4.3 17:50:32 10° SSW 17:55:46 71° WNW 18:01:00 10° NNE
Cosmos 2016 Rocket 3.9 17:50:31 14° S 17:56:05 73° E 18:02:18 10° NNE
Okean-O 2.5 17:55:48 28° SSE 17:58:04 88° WSW 18:02:29 10° NNW
USA 186 1.1 17:58:09 85° SW 17:58:11 86° W 18:00:52 10° NNW
Cosmos 2173 Rocket 4.4 17:52:29 10° SSW 17:58:32 64° W 18:04:41 10° N
Cosmos 2333 Rocket 4.3 17:57:16 10° N 18:00:29 15° NE 18:03:39 10° E
Cosmos 968 Rocket 3.8 17:55:49 10° NNW 18:00:59 61° WSW 18:04:13 23° S
CZ-4B R/B 4.0 17:59:26 31° ESE 18:01:00 40° ENE 18:05:27 10° N
NOSS 3-3 (A) 4.0 17:59:59 32° SSE 18:01:18 37° ESE 18:06:31 10° NE
Cosmos 2061 Rocket 4.2 18:00:04 27° SSE 18:03:16 52° E 18:09:18 10° NNE
Cosmos 1302 Rocket 4.0 18:01:09 24° S 18:04:09 58° ESE 18:09:14 10° NNE
Cosmos 1892 Rocket 3.4 18:03:30 10° N 18:07:51 87° E 18:09:24 39° S
USA 245 4.3 18:05:57 31° SSE 18:08:47 69° ENE 18:14:38 10° N
Cosmos 1455 Rocket 3.1 18:06:04 21° SSW 18:09:01 76° W 18:13:27 10° N
Cosmos 724 4.2 18:03:14 10° SSW 18:09:18 84° ESE 18:15:16 10° NNE
BREEZE-M DEB (TANK) 4.1 18:09:53 10° W 18:12:36 31° SSW 18:13:34 28° S
Cosmos 1980 Rocket 2.2 18:06:59 10° NNW 18:12:42 78° ENE 18:15:03 37° SE
SPOT 3 Rocket 3.5 18:13:23 38° SE 18:15:19 69° ENE 18:20:26 10° N
Cosmos 1544 Rocket 4.2 18:21:40 36° E 18:21:40 36° E 18:25:27 10° NNE
CZ-4B R/B 2.3 18:23:49 79° NE 18:23:49 79° NE 18:27:04 10° N
Cosmos 1850 Rocket 4.3 18:18:52 10° NNW 18:23:57 60° WSW 18:26:04 34° S
Cosmos 1782 3.0 18:25:15 43° SW 18:26:03 56° W 18:29:32 10° N
NOSS 3-3 (C) 3.7 18:28:15 47° SE 18:29:00 51° ESE 18:34:38 10° NE
IRS-1C Rocket 4.0 18:29:59 47° SSE 18:31:31 76° ENE 18:36:48 10° N
Terra 4.1 18:29:37 10° SW 18:32:54 19° W 18:36:12 10° NW
Gbstr 26 Del rocket 3.0 18:31:29 10° NW 18:36:17 69° NNE 18:36:55 59° E
Cosmos 2084 Rocket 4.3 18:34:22 10° NNW 18:38:17 38° NE 18:38:45 36° ENE
Cosmos 2360 Rocket 4.2 18:34:46 10° N 18:38:23 17° NE 18:40:47 13° ENE
Cosmos 1758 Rocket 3.8 18:35:23 10° N 18:39:41 54° E 18:39:41 54° E
Cosmos 2237 4.3 18:42:14 10° NNW 18:47:58 68° ENE 18:49:11 53° ESE
CZ-2C R/B 4.2 18:52:00 26° NNW 18:52:00 26° NNW 18:53:23 10° NNW
Geosat 3.8 18:46:36 10° NNE 18:51:37 76° ESE 18:52:21 63° S
Cosmos 909 Rocket 4.0 18:45:13 10° SSW 18:51:40 84° WNW 18:58:04 10° NNE
Ariane Rocket 3.1 18:52:17 54° SSW 18:53:19 69° WSW 18:58:22 10° NNW
Cosmos 2219 Rocket 4.4 18:52:47 10° NNE 18:55:55 15° NE 18:58:27 11° ENE
BREEZE-M DEB (TANK) 4.1 18:55:20 10° WNW 18:57:01 19° NW 18:57:01 19° NW
ISS -1.9 18:57:54 10° W 19:00:57 32° NNW 19:01:55 26° N
Cosmos 2369 3.6 18:57:50 10° NNW 19:03:35 81° WSW 19:04:29 64° S
Cosmos 1891 Rocket 4.3 19:02:21 53° S 19:03:55 86° E 19:10:02 10° N
Cosmos 2082 Rocket 2.9 18:59:05 13° SW 19:04:06 53° WNW 19:09:43 10° NNE
Cosmos 1602 Rocket 4.0 19:01:08 10° N 19:04:44 50° NE 19:04:44 50° NE
Cosmos 2322 Rocket 3.5 19:01:24 10° N 19:06:11 27° NE 19:07:30 25° ENE
USA 234 3.3 19:01:34 10° NE 19:07:58 54° SE 19:08:14 53° SE
Cosmos 1437 Rocket 4.0 19:14:11 34° N 19:14:11 34° N 19:16:20 10° N
SL-4 R/B 4.3 19:10:17 10° W 19:11:18 14° WSW 19:11:18 14° WSW
Meteor 1-5 Rocket 4.5 19:10:06 10° N 19:15:40 54° ENE 19:16:01 53° E
Cosmos 2151 3.4 19:13:25 10° NNW 19:16:50 57° NW 19:16:50 57° NW
Okean O Rocket 4.3 19:21:15 10° W 19:22:00 10° W 19:22:46 10° W
Milstar 3 4.4 19:16:02 10° WSW 19:20:57 26° SSW 19:20:57 26° SSW
Cosmos 1626 Rocket 4.4 19:19:09 10° NNW 19:23:06 43° W 19:23:06 43° W
Cosmos 2278 4.1 19:19:51 10° NNW 19:25:26 51° ENE 19:25:55 49° ENE
COSMOS 2406 3.3 19:25:32 52° SW 19:26:54 73° WNW 19:32:39 10° NNE
USA 305 4.5 19:27:04 10° NW 19:29:06 27° NW 19:29:06 27° NW
Meteor 1-20 Rocket 4.4 19:25:46 10° NNW 19:31:13 59° W 19:31:47 56° WSW
ATLAS 3B R/B 4.3 19:25:29 10° WNW 19:31:15 24° WSW 19:33:32 21° SW
SL-16 R/B 2.1 19:27:16 10° NNW 19:32:58 74° ENE 19:33:08 73° E
Nadezhda 4 Rocket 3.8 19:27:10 10° N 19:33:17 75° E 19:33:45 72° ESE
Okean 1-7 Rocket 4.2 19:29:02 10° N 19:32:31 52° NNE 19:32:31 52° NNE
Cosmos 1606 Rocket 4.4 19:38:52 46° NNE 19:38:52 46° NNE 19:41:58 10° N
Helios 1A 4.1 19:34:44 10° N 19:37:19 39° N 19:37:19 39° N
Cosmos 1486 Rocket 4.3 19:35:28 10° NNW 19:40:23 59° NE 19:40:23 59° NE
Cosmos 2333 Rocket 2.1 19:39:57 10° NNW 19:45:39 82° ENE 19:45:39 82° ENE
Cosmos 2098 Rocket 3.8 19:48:54 58° WNW 19:48:54 58° WNW 19:53:30 10° N
Cosmos 2195 Rocket 4.4 19:45:10 10° N 19:51:25 71° E 19:51:37 70° E
Cosmos 1980 Rocket 4.3 19:52:53 10° WNW 19:55:54 15° W 19:56:48 14° WSW
Cosmos 2026 Rocket 4.0 19:51:38 10° N 19:58:00 67° E 19:58:14 66° E
DNEPR-1 R/B 4.5 19:59:09 10° NNW 20:04:46 69° NE 20:05:08 67° ENE
Cosmos 2333 4.3 20:10:16 10° NNW 20:15:41 68° NE 20:15:41 68° NE
Meteor 1-26 Rocket 4.3 20:20:47 71° N 20:20:47 71° N 20:25:44 10° N
Cosmos 2360 Rocket 2.3 20:17:26 10° NNW 20:22:30 72° NNW 20:22:30 72° NNW
ALOS 2 3.8 20:29:08 41° N 20:29:08 41° N 20:32:02 10° N
ARIANE 5 R/B 3.8 20:29:50 40° NNW 20:29:50 40° NNW 20:32:44 10° NNW
Cosmos 2058 Rocket 4.4 20:34:39 37° N 20:34:39 37° N 20:37:22 10° N
Cosmos 1092 Rocket 3.9 20:30:16 10° N 20:36:13 74° WNW 20:36:13 74° WNW
NOSS 3-4 (A) 3.7 20:30:57 10° NW 20:37:54 85° WSW 20:38:37 75° SSE
NOSS 3-4 (C) 3.7 20:31:34 10° NW 20:38:32 85° WSW 20:39:16 75° SSE
Cosmos 2219 Rocket 2.4 20:35:05 10° NNW 20:40:07 70° N 20:40:07 70° N
Cosmos 540 Rocket 4.0 20:43:41 54° NNW 20:43:41 54° NNW 20:48:01 10° NNE
Cosmos 2322 Rocket 3.0 20:45:01 10° NW 20:49:16 42° WNW 20:49:16 42° WNW
USA 234 3.9 20:44:38 10° NE 20:50:56 52° NNW 20:55:31 19° W
SL-08 ROCKET BODY 4.4 20:48:51 10° N 20:54:45 83° NNW 20:54:45 83° NNW
Meteor 2-9 Rocket 4.5 20:55:05 10° N 20:59:40 61° NNE 20:59:40 61° NNE
ACS3 Solar Sail 3.0 20:55:42 10° NE 21:00:37 28° E 21:00:37 28° E
COSMOS 2428 3.5 20:58:38 10° NNW 21:04:02 42° ENE 21:04:37 41° ENE
Cosmos 2237 Rocket 4.3 21:03:12 10° N 21:07:27 21° NE 21:10:40 14° E
CZ-2C R/B 3.4 21:05:41 10° N 21:10:58 74° NNW 21:10:58 74° NNW
SL-16 R/B 4.3 21:13:06 10° WNW 21:14:58 14° W 21:14:58 14° W
Cosmos 2279 Rocket 4.2 21:17:15 57° W 21:17:17 57° W 21:23:28 10° N
Cosmos 2227 Rocket 4.4 21:18:17 13° E 21:18:17 13° E 21:20:34 10° ENE
SeaSat 1 3.0 21:24:17 56° N 21:24:17 56° N 21:28:12 10° NNW
Cosmos 2333 Rocket 4.4 21:26:22 10° WNW 21:27:39 13° W 21:27:39 13° W
Cosmos 841 Rocket 3.9 21:32:30 61° N 21:32:30 61° N 21:36:50 10° NNE
Cosmos 2221 4.2 21:33:39 29° NNW 21:33:39 29° NNW 21:35:58 10° N
CZ-2C R/B 3.0 21:34:56 55° NW 21:34:56 55° NW 21:39:12 10° NNW
Meteor 1-19 Rocket 4.5 21:34:52 62° NW 21:34:52 62° NW 21:40:17 10° N
Cosmos 2263 Rocket 4.5 21:38:41 12° E 21:39:05 12° E 21:41:04 10° ENE
NOSS 0 Rocket 4.1 21:37:10 10° NNW 21:43:19 66° ENE 21:44:08 59° ESE
Cosmos 1655 Rocket 4.2 21:41:04 10° N 21:47:14 61° E 21:47:59 57° ESE
Cosmos 2266 Rocket 4.0 21:44:17 10° NNW 21:49:56 62° WNW 21:49:56 62° WNW
Cosmos 2297 Rocket 2.4 21:52:12 63° E 21:52:12 63° E 21:57:22 10° NNE
Cosmos 2322 3.9 21:48:33 10° NNW 21:53:24 61° WNW 21:53:24 61° WNW
Meteor 2-20 Rocket 4.2 21:56:49 87° NNW 21:56:49 87° NNW 22:02:30 10° N
Cosmos 44 4.4 21:56:18 10° NW 21:59:52 40° WNW 21:59:52 40° WNW
Cosmos 1937 Rocket 4.0 22:01:46 10° NNW 22:05:38 48° NW 22:05:38 48° NW
Cosmos 1066 Rocket 4.2 22:07:29 66° E 22:07:29 66° E 22:12:45 10° NNE
Meteor 1-11 Rocket 4.3 22:02:21 10° NNW 22:07:04 45° WNW 22:07:04 45° WNW
BREEZE-M DEB (TANK) 3.7 22:03:57 40° SW 22:08:07 84° SSE 22:12:43 10° ENE
Lacrosse 4 Rocket 3.1 22:11:01 26° ENE 22:11:01 26° ENE 22:13:13 10° NE
RESURS DK-1 4.4 22:07:33 10° NNW 22:09:01 22° NW 22:09:01 22° NW
Cosmos 158 Rocket 4.3 22:14:47 59° E 22:14:47 59° E 22:19:58 10° NNE
ISS -1.0 22:17:44 17° ENE 22:17:44 17° ENE 22:18:58 10° ENE
Cosmos 1842 Rocket 4.1 22:23:09 56° N 22:23:09 56° N 22:26:38 10° N
IDEFIX/ARIANE 42P 3.0 22:17:52 10° NNE 22:22:56 49° E 22:23:19 48° ESE
BREEZE-M R/B 4.1 22:17:29 10° WNW 22:23:11 76° SW 22:31:19 10° SE
Cosmos 2219 Rocket 4.4 22:21:07 10° WNW 22:21:48 12° WNW 22:21:48 12° WNW
SL-14 R/B 4.5 22:26:02 40° NE 22:26:02 40° NE 22:28:44 10° NNE
Cosmos 1151 Rocket 4.1 22:27:00 36° E 22:27:00 36° E 22:30:45 10° NNE
Meteor 1-27 Rocket 4.4 22:30:22 42° W 22:30:41 42° WNW 22:36:11 10° N
BlueWalker 3 4.1 22:34:50 19° E 22:34:50 19° E 22:36:05 10° ENE
Cosmos 1244 Rocket 4.4 22:27:56 10° N 22:34:08 82° E 22:35:29 57° SSE
SL-16 R/B 4.1 22:30:36 10° N 22:35:29 28° NE 22:40:20 10° ESE
Cosmos 1805 Rocket 4.4 22:34:27 10° N 22:38:36 43° ENE 22:39:04 41° E
Meteor 2-4 Rocket 4.1 22:39:06 45° WNW 22:39:10 45° WNW 22:44:22 10° N
ACS3 Solar Sail 2.2 22:37:33 10° N 22:43:15 46° WNW 22:44:07 43° W
Iridium 4 Rocket 4.1 22:46:31 45° W 22:46:36 45° W 22:52:02 10° N
Cosmos 1340 Rocket 4.1 22:43:50 10° N 22:47:20 33° ENE 22:47:50 32° E
COSMOS 2428 4.0 22:43:12 10° NW 22:46:32 26° WNW 22:46:32 26° WNW
Cosmos 1814 Rocket 3.8 22:51:26 70° WSW 22:51:49 74° WNW 22:57:02 10° NNE
Cosmos 2237 Rocket 2.1 22:46:22 10° NNW 22:52:01 66° WSW 22:52:25 64° SW
Cosmos 1758 4.0 22:49:09 10° N 22:51:46 45° N 22:51:46 45° N
Cosmos 1980 3.7 22:50:00 10° NNW 22:55:31 57° WSW 22:55:35 57° WSW
FENGYUN 3A 3.7 22:50:51 10° NNE 22:56:17 73° ESE 22:57:29 54° SSE
USA 281 4.1 22:51:52 10° SE 22:58:05 48° ENE 23:04:21 10° NNW
ADEOS Rocket 3.6 22:50:47 10° NNE 22:58:35 75° ESE 23:01:56 37° S
BREEZE-M DEB (TANK) 3.5 23:00:41 42° SSE 23:00:41 42° SSE 23:06:57 10° SE
Resurs 1-4 Rocket 3.7 22:55:49 10° NE 23:00:19 28° E 23:03:09 18° SE
Cosmos 2227 Rocket 2.1 23:00:04 59° SW 23:01:11 84° WNW 23:06:53 10° NNE
Nadezhda 2 Rocket 4.4 22:56:34 10° NNW 23:02:39 70° W 23:04:13 50° SSW
Meteor 2-10 Rocket 4.0 22:59:22 10° NNW 23:04:35 47° W 23:04:50 46° WSW
Cosmos 1408 Rocket 3.3 23:02:36 10° N 23:06:54 88° WSW 23:07:01 84° SSW
ADEOS II 4.1 23:03:59 10° NE 23:07:57 22° E 23:11:53 10° SE
MOZ.5/SAFIR/RUBIN 5/SL-8 4.5 23:07:17 24° SE 23:09:49 51° ENE 23:14:17 10° N
NPP 3.5 23:04:51 10° NNE 23:10:16 83° WNW 23:11:37 53° SSW
In-Cosmos 22 4.3 23:13:51 48° WSW 23:14:52 55° WNW 23:20:19 10° N
Cosmos 1553 Rocket 4.4 23:16:36 40° WSW 23:18:17 49° WNW 23:24:29 10° N
Cosmos 2263 Rocket 2.1 23:20:21 46° SSW 23:22:06 90° SW 23:27:43 10° NNE
Cosmos 1703 3.2 23:23:08 58° ENE 23:23:08 58° ENE 23:26:06 10° NNE
CZ-2D R/B 3.2 23:17:58 10° NNE 23:23:04 41° E 23:26:29 19° SSE
Sich 1 4.2 23:19:41 10° NNW 23:22:27 28° WNW 23:22:27 28° WNW
BREEZE-M DEB (TANK) 3.7 23:19:26 10° WNW 23:24:15 59° SSW 23:33:25 10° SE
ALOS 3.3 23:23:37 10° NNE 23:27:54 40° E 23:30:19 22° SSE
ATLAS 5 CENTAUR R/B 3.9 23:26:35 32° WSW 23:29:47 68° NW 23:51:32 10° NE
Cosmos 1709 Rocket 4.0 23:23:49 10° N 23:30:00 80° E 23:34:49 18° SSE
Envisat 3.3 23:25:25 10° NNE 23:30:27 61° E 23:32:56 29° S
MSX 4.4 23:29:36 10° N 23:34:59 42° WNW 23:36:56 32° WSW
Cosmos 2297 Rocket 3.9 23:33:58 17° W 23:36:17 21° NW 23:40:33 10° N
CZ-3 Stage 3 4.2 23:36:48 19° S 23:36:48 19° S 23:43:51 10° SE
Cosmos 2082 4.1 23:37:04 27° S 23:40:03 59° ESE 23:45:36 10° NNE
Cosmos 1953 2.3 23:42:59 10° N 23:46:38 68° E 23:48:32 26° SSE
Lacrosse 4 Rocket 3.0 23:46:25 19° WNW 23:47:24 21° NW 23:50:31 10° N
Cosmos 883 Rocket 4.5 23:45:19 27° SSW 23:48:56 75° W 23:55:15 10° N
Cosmos 1500 Rocket 4.3 23:45:21 10° NNW 23:49:18 33° W 23:49:38 32° W
CENTAUR R/B 3.7 23:45:34 13° SSE 23:49:19 29° ESE 23:54:36 10° NE
Cosmos 1633 Rocket 3.5 23:45:48 10° N 23:50:03 58° E 23:54:18 10° SSE
Cosmos 1745 Rocket 4.1 23:46:11 10° NNW 23:52:06 52° W 23:55:24 26° SSW
ISS -3.9 23:50:53 18° WNW 23:53:15 77° SW 23:56:36 10° SE
